Home   Weather   Mabalacat   Past weeks

Flag for Philippines Past Weather in Mabalacat, Philippines — Yesterday and Last 2 Weeks

Now
84 °F

Passing clouds.


Feels Like: 90 °F
Forecast: 74 / 92 °F
Wind: 5 mph from Southwest

Location: Clarkfield Pampanga International Airport

Current Time: Feb 23, 2017 at 8:10:58 pm

Latest Report: Feb 23, 2017 at 7:00 pm


Visibility: N/A

Pressure: 29.92 "Hg

Humidity: 66%

Dew Point: 72 °F

Location of MabalacatLocation

Past Weather in Mabalacat — Graph

°F

Mabalacat Temperature Yesterday

Maximum temperature yesterday: 90 °F (at 4:00 pm)
Minimum temperature yesterday: 73 °F (at 4:00 am)
Average temperature yesterday: 80 °F

High & Low Weather Summary for the Past Weeks

 TemperatureHumidityPressure
High93 °F (Feb 23, 2:00 pm)94% (Feb 20, 5:00 am)30.21 "Hg (Feb 20, 5:00 am)
Low66 °F (Feb 14, 5:00 am)40% (Feb 14, 12:00 pm)29.80 "Hg (Feb 9, 3:00 pm)
Average78 °F67%30.01 "Hg
* Reported Feb 8 6:00 pm — Feb 23 6:00 pm, Mabalacat, Weather by CustomWeather, © 2017

Note: Actual official high and low records may vary slightly from our data, if they occured in-between our weather recording intervals... More about our weather records

Advertising

Mabalacat Weather History for the Previous 24 Hours

Scroll right to see more
 ConditionsComfort  
Time TempWeatherWind HumidityBarometerVisibility
6:00 pm
Thu, Feb 23
86 °FScattered clouds.7 mph62%29.92 "HgN/A
5:00 pm90 °FScattered clouds.7 mph52%29.89 "HgN/A
4:00 pm91 °FPartly sunny.7 mph49%29.86 "HgN/A
3:00 pm93 °FScattered clouds.5 mph41%29.86 "HgN/A
2:00 pm93 °FScattered clouds.5 mph44%29.86 "HgN/A
1:00 pm91 °FScattered clouds.5 mph46%29.92 "HgN/A
12:00 pm88 °FScattered clouds.7 mph52%29.95 "HgN/A
11:00 am86 °FPartly sunny.7 mph52%29.98 "HgN/A
9:00 am81 °FPartly sunny.9 mph62%29.98 "HgN/A
8:00 am79 °FPartly sunny.5 mph70%29.98 "HgN/A
7:00 am73 °FPartly sunny.5 mph78%29.98 "HgN/A
6:00 am73 °FPassing clouds.3 mph83%29.95 "HgN/A
5:00 am73 °FPassing clouds.3 mph78%29.95 "HgN/A
4:00 am75 °FPartly cloudy.3 mph78%29.95 "HgN/A
3:00 am77 °FPartly cloudy.5 mph74%29.95 "HgN/A
2:00 am77 °FPassing clouds.9 mph74%29.95 "HgN/A
1:00 am77 °FPassing clouds.3 mph74%29.98 "HgN/A
12:00 am75 °FPartly cloudy.3 mph83%29.98 "HgN/A
11:00 pm
Wed, Feb 22
77 °FPassing clouds.5 mph74%29.98 "HgN/A
10:00 pm79 °FPassing clouds.5 mph70%29.98 "HgN/A
9:00 pm79 °FPassing clouds.5 mph70%29.98 "HgN/A
8:00 pm81 °FPassing clouds.5 mph66%29.98 "HgN/A
Weather by CustomWeather, © 2017

See weather overviewHow to use our weather pages